Ana Sayfa
METAR-TAF:

METAR-TAF

Havaalanları :

Blue Ridge Airport

Martinsville, Virginia, Amerika Birleşik Devletleri

Enlem: 36-38N, Boylam: 080-01W, yükseklik: 287 m

Güncel hava durumu gözlemi

Rapor saat 08:35 UTC de 23 dakika önce yapıldı.
Sakin rüzgar
Sıcaklık 7°C
Nem 100%
Basınç 1011 hPa
Görüş mesafesi: 8.0 km
400 ft yükseklikte parçalı çok bulutlu
1300 ft yükseklikte çok bulutlu
yağmur

METAR: KMTV 250835Z AUTO 00000KT 5SM RA BKN004 OVC013 07/07 A2985 RMK AO2 P0005 T00650065

Saat: 03:58 (08:58 UTC)


TAF: eksik

4.000'den fazla havaalanı için hava durumu gözlemleri ve tahminleri (METAR ve TAF raporları).

Kullanılabilir istasyonlar harita üzerinde sarı ve kırmızı noktalarla gösterilir.

İstasyonun adını görmek için fareyi noktanın üzerinde gezdirin.

Sonrasında hava gözlem ve tahminlerini görmek için tıklayın.

Haritayı değiştirmek için: yaklaştırmak için siyah artı işaretli yeşil düğmeye ve uzaklaştırmak için de eksi işaretli düğmeye hızla tıklayın; bitişik haritalar için yeşil okları kullanın.


METAR-TAF: